Time,TemperatureF,DewpointF,PressureIn,WindDirection,WindDirectionDegrees,WindSpeedMPH,WindSpeedGustMPH,Humidity,HourlyPrecipIn,Conditions,Clouds,dailyrainin,SoftwareType,DateUTC
2013-06-04 00:02:00,57.0,52.0,30.00,ESE,112,5.0,7.0,82,-99.99,,,-99.99,,2013-06-04 05:02:00,
2013-06-04 00:12:00,57.0,52.0,30.00,SE,135,5.0,7.0,83,-99.99,,,-99.99,,2013-06-04 05:12:00,
2013-06-04 00:22:00,57.0,52.0,30.00,ESE,112,5.0,6.0,84,-99.99,,,-99.99,,2013-06-04 05:22:00,
2013-06-04 00:32:00,57.0,52.0,30.00,ESE,112,5.0,8.0,84,-99.99,,,-99.99,,2013-06-04 05:32:00,
2013-06-04 00:42:00,56.0,52.0,30.00,SE,135,4.0,7.0,84,-99.99,,,-99.99,,2013-06-04 05:42:00,
2013-06-04 00:52:00,56.0,52.0,30.00,SSE,157,5.0,8.0,84,-99.99,,,-99.99,,2013-06-04 05:52:00,
2013-06-04 01:02:00,56.0,51.0,30.00,SE,135,5.0,7.0,84,-99.99,,,-99.99,,2013-06-04 06:02:00,
2013-06-04 01:12:00,55.0,51.0,30.00,SE,135,4.0,5.0,86,-99.99,,,-99.99,,2013-06-04 06:12:00,
2013-06-04 01:22:00,55.0,51.0,30.00,SE,135,3.0,4.0,87,-99.99,,,-99.99,,2013-06-04 06:22:00,
2013-06-04 01:32:00,55.0,51.0,30.00,ESE,112,3.0,4.0,88,-99.99,,,-99.99,,2013-06-04 06:32:00,
2013-06-04 01:42:00,54.0,51.0,30.01,SE,135,3.0,4.0,89,-99.99,,,-99.99,,2013-06-04 06:42:00,
2013-06-04 01:52:00,54.0,51.0,30.01,ESE,112,3.0,4.0,89,-99.99,,,-99.99,,2013-06-04 06:52:00,
2013-06-04 02:02:00,54.0,51.0,30.02,ESE,112,3.0,3.0,90,-99.99,,,-99.99,,2013-06-04 07:02:00,
2013-06-04 02:12:00,54.0,51.0,30.02,ESE,112,2.0,3.0,90,-99.99,,,-99.99,,2013-06-04 07:12:00,
2013-06-04 02:22:00,54.0,51.0,30.04,SE,135,0.0,-999.0,91,-99.99,,,-99.99,,2013-06-04 07:22:00,
2013-06-04 02:32:00,54.0,51.0,30.02,ESE,112,2.0,5.0,92,-99.99,,,-99.99,,2013-06-04 07:32:00,
2013-06-04 02:42:00,54.0,52.0,30.01,ESE,112,5.0,8.0,94,-99.99,,,-99.99,,2013-06-04 07:42:00,
2013-06-04 02:52:00,54.0,52.0,30.01,ESE,112,5.0,6.0,94,-99.99,,,-99.99,,2013-06-04 07:52:00,
2013-06-04 03:02:00,54.0,52.0,30.00,ESE,112,5.0,6.0,94,-99.99,,,-99.99,,2013-06-04 08:02:00,
2013-06-04 03:12:00,54.0,52.0,30.01,SE,135,5.0,7.0,94,-99.99,,,-99.99,,2013-06-04 08:12:00,
2013-06-04 03:22:00,54.0,52.0,30.00,SE,135,6.0,9.0,92,-99.99,,,-99.99,,2013-06-04 08:22:00,
2013-06-04 03:32:00,55.0,52.0,30.01,SE,135,6.0,8.0,91,-99.99,,,-99.99,,2013-06-04 08:32:00,
2013-06-04 03:42:00,54.0,52.0,30.01,SE,135,4.0,6.0,92,-99.99,,,-99.99,,2013-06-04 08:42:00,
2013-06-04 03:52:00,54.0,52.0,30.00,SE,135,5.0,7.0,93,-99.99,,,-99.99,,2013-06-04 08:52:00,
2013-06-04 04:02:00,54.0,52.0,30.01,ESE,112,5.0,7.0,94,-99.99,,,-99.99,,2013-06-04 09:02:00,
2013-06-04 04:12:00,53.0,52.0,30.00,ESE,112,4.0,4.0,95,-99.99,,,-99.99,,2013-06-04 09:12:00,
2013-06-04 04:22:00,53.0,52.0,30.01,North,0,4.0,5.0,96,-99.99,,,-99.99,,2013-06-04 09:22:00,
2013-06-04 04:32:00,53.0,52.0,30.00,ESE,112,4.0,6.0,96,-99.99,,,-99.99,,2013-06-04 09:32:00,
2013-06-04 04:43:00,53.0,52.0,30.00,SE,135,4.0,6.0,96,-99.99,,,-99.99,,2013-06-04 09:43:00,
2013-06-04 04:53:00,53.0,52.0,30.00,SE,135,4.0,4.0,96,-99.99,,,-99.99,,2013-06-04 09:53:00,
2013-06-04 05:02:00,53.0,52.0,30.00,SE,135,5.0,7.0,95,-99.99,,,-99.99,,2013-06-04 10:02:00,
2013-06-04 05:12:00,53.0,51.0,30.01,SE,135,5.0,8.0,95,-99.99,,,-99.99,,2013-06-04 10:12:00,
2013-06-04 05:22:00,53.0,51.0,30.01,SE,135,6.0,7.0,95,-99.99,,,-99.99,,2013-06-04 10:22:00,
2013-06-04 05:32:00,53.0,51.0,30.01,SE,135,5.0,8.0,95,-99.99,,,-99.99,,2013-06-04 10:32:00,
2013-06-04 05:42:00,53.0,51.0,30.02,ESE,112,4.0,7.0,95,-99.99,,,-99.99,,2013-06-04 10:42:00,
2013-06-04 05:52:00,52.0,51.0,30.03,ESE,112,3.0,4.0,96,-99.99,,,-99.99,,2013-06-04 10:52:00,
2013-06-04 06:02:00,52.0,51.0,30.02,ESE,112,4.0,5.0,96,-99.99,,,-99.99,,2013-06-04 11:02:00,
2013-06-04 06:12:00,53.0,52.0,30.02,SE,135,5.0,7.0,97,-99.99,,,-99.99,,2013-06-04 11:12:00,
2013-06-04 06:22:00,53.0,52.0,30.02,ESE,112,5.0,8.0,95,-99.99,,,-99.99,,2013-06-04 11:22:00,
2013-06-04 06:32:00,54.0,52.0,30.02,SE,135,6.0,8.0,94,-99.99,,,-99.99,,2013-06-04 11:32:00,
2013-06-04 06:42:00,54.0,52.0,30.03,SE,135,6.0,8.0,93,-99.99,,,-99.99,,2013-06-04 11:42:00,
2013-06-04 06:52:00,55.0,52.0,30.03,SSE,157,6.0,9.0,92,-99.99,,,-99.99,,2013-06-04 11:52:00,
2013-06-04 07:02:00,55.0,53.0,30.04,SE,135,6.0,8.0,91,-99.99,,,-99.99,,2013-06-04 12:02:00,
2013-06-04 07:12:00,56.0,53.0,30.03,SSE,157,6.0,10.0,89,-99.99,,,-99.99,,2013-06-04 12:12:00,
2013-06-04 07:22:00,57.0,53.0,30.03,SE,135,7.0,10.0,87,-99.99,,,-99.99,,2013-06-04 12:22:00,
2013-06-04 07:32:00,57.0,53.0,30.02,SSE,157,7.0,10.0,86,-99.99,,,-99.99,,2013-06-04 12:32:00,
2013-06-04 07:42:00,58.0,53.0,30.02,ESE,112,7.0,11.0,85,-99.99,,,-99.99,,2013-06-04 12:42:00,
2013-06-04 07:52:00,59.0,54.0,30.02,SE,135,7.0,12.0,81,-99.99,,,-99.99,,2013-06-04 12:52:00,
2013-06-04 08:02:00,59.0,54.0,30.02,SSE,157,7.0,12.0,80,-99.99,,,-99.99,,2013-06-04 13:02:00,
2013-06-04 08:12:00,60.0,54.0,30.03,SE,135,7.0,10.0,80,-99.99,,,-99.99,,2013-06-04 13:12:00,
2013-06-04 08:22:00,60.0,53.0,30.03,SE,135,7.0,11.0,78,-99.99,,,-99.99,,2013-06-04 13:22:00,
2013-06-04 08:32:00,61.0,54.0,30.03,SE,135,6.0,9.0,77,-99.99,,,-99.99,,2013-06-04 13:32:00,
2013-06-04 08:42:00,62.0,54.0,30.03,South,180,6.0,8.0,74,-99.99,,,-99.99,,2013-06-04 13:42:00,
2013-06-04 08:52:00,61.0,53.0,30.02,SE,135,8.0,12.0,75,-99.99,,,-99.99,,2013-06-04 13:52:00,
2013-06-04 09:02:00,62.0,54.0,30.03,SE,135,7.0,10.0,74,-99.99,,,-99.99,,2013-06-04 14:02:00,
2013-06-04 09:12:00,63.0,54.0,30.03,SSE,157,7.0,12.0,73,-99.99,,,-99.99,,2013-06-04 14:12:00,
2013-06-04 09:22:00,63.0,54.0,30.03,SE,135,8.0,12.0,73,-99.99,,,-99.99,,2013-06-04 14:22:00,
2013-06-04 09:32:00,64.0,55.0,30.03,SE,135,8.0,11.0,72,-99.99,,,-99.99,,2013-06-04 14:32:00,
2013-06-04 09:42:00,65.0,55.0,30.03,SE,135,7.0,12.0,71,-99.99,,,-99.99,,2013-06-04 14:42:00,
2013-06-04 09:52:00,65.0,54.0,30.04,SE,135,7.0,11.0,66,-99.99,,,-99.99,,2013-06-04 14:52:00,
2013-06-04 10:02:00,66.0,54.0,30.04,SSE,157,5.0,8.0,67,-99.99,,,-99.99,,2013-06-04 15:02:00,
2013-06-04 10:12:00,65.0,54.0,30.04,SSE,157,5.0,9.0,66,-99.99,,,-99.99,,2013-06-04 15:12:00,
2013-06-04 10:22:00,66.0,56.0,30.05,SSE,157,4.0,8.0,70,-99.99,,,-99.99,,2013-06-04 15:22:00,
2013-06-04 10:33:00,67.0,55.0,30.04,South,180,6.0,10.0,66,-99.99,,,-99.99,,2013-06-04 15:33:00,
2013-06-04 10:42:00,67.0,56.0,30.04,South,180,5.0,9.0,69,-99.99,,,-99.99,,2013-06-04 15:42:00,
2013-06-04 10:53:00,68.0,56.0,30.05,SE,135,5.0,9.0,65,-99.99,,,-99.99,,2013-06-04 15:53:00,
2013-06-04 11:03:00,68.0,56.0,30.05,SE,135,5.0,9.0,65,-99.99,,,-99.99,,2013-06-04 16:03:00,
2013-06-04 11:12:00,68.0,56.0,30.05,SSW,202,3.0,7.0,66,-99.99,,,-99.99,,2013-06-04 16:12:00,
2013-06-04 11:22:00,68.0,56.0,30.05,SE,135,3.0,6.0,65,-99.99,,,-99.99,,2013-06-04 16:22:00,
2013-06-04 11:33:00,69.0,59.0,30.06,SSW,202,3.0,6.0,69,-99.99,,,-99.99,,2013-06-04 16:33:00,
2013-06-04 11:42:00,70.0,57.0,30.06,SE,135,5.0,8.0,64,-99.99,,,-99.99,,2013-06-04 16:42:00,
2013-06-04 11:52:00,69.0,57.0,30.06,SSW,202,4.0,6.0,67,-99.99,,,-99.99,,2013-06-04 16:52:00,
2013-06-04 12:02:00,70.0,57.0,30.05,SSE,157,4.0,6.0,63,-99.99,,,-99.99,,2013-06-04 17:02:00,
2013-06-04 12:12:00,71.0,57.0,30.04,SE,135,3.0,7.0,61,-99.99,,,-99.99,,2013-06-04 17:12:00,
2013-06-04 12:23:00,71.0,58.0,30.04,SSE,157,4.0,7.0,63,-99.99,,,-99.99,,2013-06-04 17:23:00,
2013-06-04 12:32:00,70.0,58.0,30.04,SSW,202,5.0,8.0,64,-99.99,,,-99.99,,2013-06-04 17:32:00,
2013-06-04 12:42:00,72.0,58.0,30.04,SSE,157,4.0,7.0,61,-99.99,,,-99.99,,2013-06-04 17:42:00,
2013-06-04 12:52:00,72.0,56.0,30.05,SW,225,3.0,6.0,59,-99.99,,,-99.99,,2013-06-04 17:52:00,
2013-06-04 13:02:00,73.0,58.0,30.05,ESE,112,4.0,8.0,58,-99.99,,,-99.99,,2013-06-04 18:02:00,
2013-06-04 13:12:00,72.0,57.0,30.05,ESE,112,4.0,8.0,58,-99.99,,,-99.99,,2013-06-04 18:12:00,
2013-06-04 13:22:00,72.0,58.0,30.05,SSE,157,1.0,3.0,60,-99.99,,,-99.99,,2013-06-04 18:22:00,
2013-06-04 13:32:00,74.0,58.0,30.05,WSW,247,3.0,6.0,58,-99.99,,,-99.99,,2013-06-04 18:32:00,
2013-06-04 13:42:00,74.0,59.0,30.05,SSE,157,4.0,8.0,60,-99.99,,,-99.99,,2013-06-04 18:42:00,
2013-06-04 13:52:00,73.0,57.0,30.05,NNW,337,3.0,7.0,56,-99.99,,,-99.99,,2013-06-04 18:52:00,
2013-06-04 14:02:00,74.0,57.0,30.05,ENE,67,5.0,10.0,55,-99.99,,,-99.99,,2013-06-04 19:02:00,
2013-06-04 14:12:00,74.0,61.0,30.05,NE,45,2.0,4.0,62,-99.99,,,-99.99,,2013-06-04 19:12:00,
2013-06-04 14:22:00,75.0,56.0,30.04,SW,225,2.0,5.0,53,-99.99,,,-99.99,,2013-06-04 19:22:00,
2013-06-04 14:32:00,76.0,59.0,30.03,ESE,112,6.0,11.0,55,-99.99,,,-99.99,,2013-06-04 19:32:00,
2013-06-04 14:42:00,76.0,59.0,30.03,ESE,112,5.0,8.0,57,-99.99,,,-99.99,,2013-06-04 19:42:00,
2013-06-04 14:52:00,75.0,58.0,30.03,NNE,22,3.0,6.0,55,-99.99,,,-99.99,,2013-06-04 19:52:00,
2013-06-04 15:02:00,75.0,57.0,30.03,NE,45,5.0,8.0,54,-99.99,,,-99.99,,2013-06-04 20:02:00,
2013-06-04 15:12:00,76.0,56.0,30.02,ENE,67,7.0,11.0,50,-99.99,,,-99.99,,2013-06-04 20:12:00,
2013-06-04 15:22:00,76.0,57.0,30.02,SE,135,5.0,8.0,53,-99.99,,,-99.99,,2013-06-04 20:22:00,
2013-06-04 15:32:00,76.0,57.0,30.02,North,0,4.0,7.0,51,-99.99,,,-99.99,,2013-06-04 20:32:00,
2013-06-04 15:42:00,76.0,56.0,30.02,ESE,112,6.0,9.0,51,-99.99,,,-99.99,,2013-06-04 20:42:00,
2013-06-04 15:52:00,76.0,56.0,30.01,ESE,112,6.0,8.0,52,-99.99,,,-99.99,,2013-06-04 20:52:00,
2013-06-04 16:02:00,76.0,58.0,30.01,SSE,157,6.0,10.0,54,-99.99,,,-99.99,,2013-06-04 21:02:00,
2013-06-04 16:12:00,76.0,56.0,30.01,SE,135,6.0,10.0,51,-99.99,,,-99.99,,2013-06-04 21:12:00,
2013-06-04 16:22:00,75.0,58.0,30.00,ESE,112,8.0,12.0,55,-99.99,,,-99.99,,2013-06-04 21:22:00,
2013-06-04 16:33:00,74.0,58.0,30.00,North,0,10.0,13.0,56,-99.99,,,-99.99,,2013-06-04 21:33:00,
2013-06-04 16:42:00,75.0,59.0,30.00,SE,135,6.0,9.0,57,-99.99,,,-99.99,,2013-06-04 21:42:00,
2013-06-04 16:52:00,74.0,59.0,29.99,SE,135,9.0,12.0,60,-99.99,,,-99.99,,2013-06-04 21:52:00,
2013-06-04 17:02:00,73.0,59.0,29.99,ESE,112,9.0,11.0,60,-99.99,,,-99.99,,2013-06-04 22:02:00,
2013-06-04 17:12:00,74.0,60.0,29.99,North,0,7.0,11.0,62,-99.99,,,-99.99,,2013-06-04 22:12:00,
2013-06-04 17:22:00,73.0,60.0,29.99,ESE,112,8.0,12.0,64,-99.99,,,-99.99,,2013-06-04 22:22:00,
2013-06-04 17:32:00,72.0,60.0,29.98,ESE,112,7.0,10.0,66,-99.99,,,-99.99,,2013-06-04 22:32:00,
2013-06-04 17:42:00,72.0,60.0,29.98,North,0,9.0,12.0,65,-99.99,,,-99.99,,2013-06-04 22:42:00,
2013-06-04 17:52:00,72.0,59.0,29.98,SE,135,8.0,11.0,65,-99.99,,,-99.99,,2013-06-04 22:52:00,
2013-06-04 18:02:00,71.0,59.0,29.97,SE,135,9.0,13.0,65,-99.99,,,-99.99,,2013-06-04 23:02:00,
2013-06-04 18:12:00,71.0,59.0,29.97,ESE,112,9.0,12.0,66,-99.99,,,-99.99,,2013-06-04 23:12:00,
2013-06-04 18:22:00,70.0,59.0,29.97,ESE,112,8.0,12.0,67,-99.99,,,-99.99,,2013-06-04 23:22:00,
2013-06-04 18:32:00,70.0,59.0,29.97,ESE,112,8.0,12.0,67,-99.99,,,-99.99,,2013-06-04 23:32:00,
2013-06-04 18:42:00,70.0,59.0,29.97,ESE,112,8.0,11.0,69,-99.99,,,-99.99,,2013-06-04 23:42:00,
2013-06-04 18:52:00,69.0,59.0,29.97,ESE,112,8.0,13.0,69,-99.99,,,-99.99,,2013-06-04 23:52:00,
2013-06-04 19:02:00,69.0,59.0,29.97,ESE,112,8.0,10.0,70,-99.99,,,-99.99,,2013-06-05 00:02:00,
2013-06-04 19:12:00,69.0,59.0,29.97,ESE,112,7.0,10.0,71,-99.99,,,-99.99,,2013-06-05 00:12:00,
2013-06-04 19:22:00,68.0,59.0,29.98,SE,135,6.0,10.0,72,-99.99,,,-99.99,,2013-06-05 00:22:00,
2013-06-04 19:32:00,68.0,59.0,29.97,SSE,157,6.0,9.0,72,-99.99,,,-99.99,,2013-06-05 00:32:00,
2013-06-04 19:42:00,68.0,59.0,29.96,SE,135,8.0,10.0,72,-99.99,,,-99.99,,2013-06-05 00:42:00,
2013-06-04 19:52:00,68.0,59.0,29.96,ESE,112,8.0,13.0,73,-99.99,,,-99.99,,2013-06-05 00:52:00,
2013-06-04 20:02:00,68.0,59.0,29.95,ESE,112,10.0,13.0,73,-99.99,,,-99.99,,2013-06-05 01:02:00,
2013-06-04 20:12:00,68.0,58.0,29.94,ESE,112,11.0,17.0,70,-99.99,,,-99.99,,2013-06-05 01:12:00,
2013-06-04 20:22:00,67.0,57.0,29.95,ESE,112,11.0,16.0,70,-99.99,,,-99.99,,2013-06-05 01:22:00,
2013-06-04 20:32:00,67.0,58.0,29.95,SE,135,9.0,14.0,72,-99.99,,,-99.99,,2013-06-05 01:32:00,
2013-06-04 20:42:00,67.0,58.0,29.96,ESE,112,7.0,12.0,72,-99.99,,,-99.99,,2013-06-05 01:42:00,
2013-06-04 20:52:00,66.0,57.0,29.97,ESE,112,4.0,7.0,74,-99.99,,,-99.99,,2013-06-05 01:52:00,
2013-06-04 21:02:00,65.0,57.0,29.98,SE,135,2.0,5.0,74,-99.99,,,-99.99,,2013-06-05 02:02:00,
2013-06-04 21:12:00,65.0,57.0,29.99,NNW,337,0.0,-999.0,76,-99.99,,,-99.99,,2013-06-05 02:12:00,
2013-06-04 21:22:00,65.0,58.0,29.99,ESE,112,1.0,3.0,78,-99.99,,,-99.99,,2013-06-05 02:22:00,
2013-06-04 21:32:00,64.0,57.0,30.00,NW,315,0.0,-999.0,78,-99.99,,,-99.99,,2013-06-05 02:32:00,
2013-06-04 21:42:00,64.0,58.0,30.00,NW,315,0.0,-999.0,82,-99.99,,,-99.99,,2013-06-05 02:42:00,
2013-06-04 21:52:00,63.0,58.0,30.00,ESE,112,0.0,-999.0,81,-99.99,,,-99.99,,2013-06-05 02:52:00,
2013-06-04 22:02:00,64.0,58.0,30.01,East,90,0.0,-999.0,82,-99.99,,,-99.99,,2013-06-05 03:02:00,
2013-06-04 22:12:00,63.0,58.0,30.01,NNE,22,0.0,-999.0,82,-99.99,,,-99.99,,2013-06-05 03:12:00,
2013-06-04 22:22:00,63.0,57.0,30.01,ENE,67,1.0,2.0,81,-99.99,,,-99.99,,2013-06-05 03:22:00,
2013-06-04 22:33:00,63.0,58.0,30.01,ENE,67,1.0,2.0,83,-99.99,,,-99.99,,2013-06-05 03:33:00,
2013-06-04 22:43:00,62.0,57.0,30.01,ENE,67,4.0,4.0,85,-99.99,,,-99.99,,2013-06-05 03:43:00,
2013-06-04 22:53:00,61.0,57.0,30.02,ENE,67,3.0,4.0,86,-99.99,,,-99.99,,2013-06-05 03:53:00,
2013-06-04 23:02:00,61.0,57.0,30.02,ENE,67,3.0,4.0,87,-99.99,,,-99.99,,2013-06-05 04:02:00,
2013-06-04 23:13:00,61.0,57.0,30.02,ENE,67,4.0,4.0,88,-99.99,,,-99.99,,2013-06-05 04:13:00,
2013-06-04 23:22:00,60.0,57.0,30.01,ENE,67,4.0,4.0,88,-99.99,,,-99.99,,2013-06-05 04:22:00,
2013-06-04 23:33:00,60.0,56.0,30.01,ENE,67,3.0,4.0,88,-99.99,,,-99.99,,2013-06-05 04:33:00,
2013-06-04 23:42:00,60.0,56.0,30.01,ENE,67,4.0,5.0,88,-99.99,,,-99.99,,2013-06-05 04:42:00,
2013-06-04 23:53:00,59.0,56.0,30.00,ENE,67,3.0,4.0,88,-99.99,,,-99.99,,2013-06-05 04:53:00,